Flag for Chile Weather past 2 weeks in Temuco, Chile

Now
54 °F

Rain. Mostly cloudy.


Feels Like: 48 °F
Forecast: 50 / 57 °F
Wind: 20 mph from Northeast

Location: Concepcion Airport

Current Time: Jul 30, 2014 at 8:00:28 PM

Latest Report: Jul 30, 2014 at 7:00 PM


Visibility: 2 mi

Pressure: 30.01 "Hg

Humidity: 94%

Dew point: 52 °F

Location of TemucoLocation

Historic Weather in Temuco — Graph

°F

Temuco temperature yesterday

Maximum temperature yesterday: 59 °F (at 12:00 PM)
Minimum temperature yesterday: 52 °F (at 10:00 PM)
Average temperature yesterday: 55 °F

Past Weeks' High & Low Weather Summary

 TemperatureHumidityPressure
High63 °F (Jul 18, 3:00 PM)100% (Jul 16, 1:00 AM)30.51 "Hg (Jul 16, 1:00 AM)
Low32 °F (Jul 23, 8:00 AM)54% (Jul 24, 12:00 PM)29.89 "Hg (Jul 29, 1:00 AM)
Average50 °F89%30.15 "Hg
* Reported Jul 15 7:00 PM — Jul 30 7:00 PM, Temuco, Weather by CustomWeather, © 2014

Note: Actual official high and low records may vary slightly from our data, if they occured in-between our weather recording intervals... More about our weather records

Advertising

Temuco weather history for previous 24 hours

 ConditionsComfort  
Time TempWeatherWind HumidityBarometerVisibility
7:00 PM
Jul 30
54 °FRain. Mostly cloudy.20 mph94%30.01 "Hg2 mi
6:00 PM54 °FLight rain. Mostly cloudy.20 mph88%30.01 "Hg3 mi
5:00 PM54 °FRain. Mostly cloudy.15 mph88%29.98 "Hg3 mi
4:00 PM54 °FLight rain. Mostly cloudy.15 mph88%29.98 "Hg4 mi
3:00 PM54 °FLight rain. Mostly cloudy.9 mph94%30.01 "HgN/A
2:00 PM54 °FMore clouds than sun.17 mph94%29.98 "HgN/A
1:00 PM54 °FLow clouds.14 mph94%30.01 "HgN/A
12:00 PM54 °FLow clouds.14 mph88%30.01 "HgN/A
11:00 AM52 °FFog.10 mph94%30.04 "Hg3 mi
10:00 AM52 °FOvercast.6 mph94%30.04 "HgN/A
9:00 AM50 °FSunny.3 mph94%30.01 "Hg10 mi
8:00 AM48 °FMore clouds than sun.2 mph100%30.01 "HgN/A
7:00 AM48 °FMore clouds than sun.2 mph100%30.04 "HgN/A
6:00 AM50 °FMostly cloudy.2 mph94%30.04 "HgN/A
5:00 AM50 °FMostly cloudy.No wind94%30.04 "HgN/A
4:00 AM50 °FPartly cloudy.3 mph94%30.07 "HgN/A
3:00 AM50 °FPartly cloudy.No wind94%30.07 "HgN/A
2:00 AM50 °FPartly cloudy.2 mph94%30.09 "HgN/A
1:00 AM50 °FPartly cloudy.No wind100%30.09 "HgN/A
12:00 AM52 °FFog.2 mph94%30.09 "Hg3 mi
11:00 PM
Jul 29
52 °FFog.2 mph94%30.09 "Hg4 mi
10:00 PM52 °FMostly cloudy.2 mph100%30.09 "Hg2 mi
9:00 PM54 °FPartly cloudy.2 mph94%30.12 "HgN/A
8:00 PM54 °FPartly cloudy.2 mph94%30.15 "HgN/A
Weather by CustomWeather, © 2014

See weather overviewHow to use our weather pages